Regional Weather Roundup
Issued by NWS Huntsville, AL

Home | Current Version | Previous Version | Text Only | Print | Product List | Glossary On
Versions: 1 2 3 4 5 6 7 8 9 10 11 12 13 14 15 16 17 18 19 20 21 22 23 24 25 26
000
ASUS44 KHUN 270610
RWRHUN

WEATHER ROUNDUP FOR THE TENNESSEE VALLEY
NATIONAL WEATHER SERVICE HUNTSVILLE AL
100 AM CDT FRI MAY 27 2016

ALZ001>004-270700-
NORTHWEST ALABAMA

CITY           SKY/WX    TMP DP  RH WIND       PRES   REMARKS
RUSSELLVILLE     N/A     68 N/A N/A MISG        N/A
SHOALS AIRPORT MOCLDY    72  61  68 SE3       30.00F
6HR MIN TEMP:  71; 6HR MAX TEMP:  85;

SHOALS TVA RES   N/A     73 N/A N/A MISG        N/A
$$

ALZ005>007-016-270700-
NORTH CENTRAL ALABAMA

CITY           SKY/WX    TMP DP  RH WIND       PRES   REMARKS
CULLMAN AG STN   N/A     64 N/A N/A CALM        N/A
DECATUR AP     PTCLDY    70  62  76 SE5       30.03F
6HR MIN TEMP:  70; 6HR MAX TEMP:  84;

HUNTSVILLE AP  PTCLDY    72  60  66 SE5       30.03F
6HR MIN TEMP:  72; 6HR MAX TEMP:  86;

HUN NWS/UAH      N/A     73  60  62 SE3         N/A
MERIDIANVILLE  PTCLDY    72  55  56 CALM      30.03F
REDSTONE ARSN  PTCLDY    70  62  75 S3        30.02F
VINEMONT AP    FAIR      71  61  69 S6        30.06F
$$

ALZ008>010-270700-
NORTHEAST ALABAMA

CITY           SKY/WX    TMP DP  RH WIND       PRES   REMARKS
ALBERTVILLE    CLOUDY    70  64  83 S3        30.06S
FORT PAYNE     CLEAR     63  59  88 CALM      30.06F
SCOTTSBORO AP  CLEAR     66  66 100 CALM      30.05F
SCOTTSBORO HCN   N/A     66 N/A N/A MISG        N/A
VALLEY HEAD      N/A     64 N/A N/A MISG        N/A
$$

TNZ076-096-097-270700-
SOUTHEASTERN MIDDLE TENNESSEE

CITY           SKY/WX    TMP DP  RH WIND       PRES   REMARKS
TULLAHOMA      CLEAR     66  64  94 CALM      30.05F
WINCHESTER     CLEAR     70  61  73 CALM      30.05F
$$

...SURROUNDING SITES...

CITY           SKY/WX    TMP DP  RH WIND       PRES   REMARKS
ATLANTA        PTCLDY    73  63  70 S5        30.09S
ANNISTON       CLOUDY    69  65  86 E3        30.06F
BIRMINGHAM     CLOUDY    77  62  59 SE6       30.06F
CHATTANOOGA    PTCLDY    70  62  76 E3        30.05F
DALTON         PTCLDY    70  64  83 CALM      30.07S
GADSDEN        PTCLDY    67  63  87 CALM      30.05F
GOLDEN TRNGL   CLOUDY    73  63  68 S7        29.97F
HALEYVILLE     FAIR      72  61  68 S6        30.04F
JACKSON TN     CLOUDY    67  65  93 SE5       29.95F
MEMPHIS        CLOUDY    70  66  87 E8        29.92F
NASHVILLE      MOCLDY    69  63  81 CALM      30.01R
OXFORD MS      FAIR      73  64  73 SE8       29.95F
ROME           CLEAR     67  63  87 CALM      30.06S
TUPELO         CLOUDY    76  58  53 SE9       29.96F
TUSCALOOSA     PTCLDY    75  65  70 S9        30.01F
$$

...GULF COAST WEATHER...

CITY           SKY/WX    TMP DP  RH WIND       PRES   REMARKS
GULFPORT       MOCLDY    79  70  74 S14       30.00F
PASCAGOULA     CLEAR     73  70  90 SE5       30.01F
MOBILE         PTCLDY    72  71  97 SE5       30.02F
GULF SHORES    CLOUDY    75  73  92 S7        30.02F
DESTIN         CLEAR     79  72  79 CALM      30.03F
PANAMA CITY    CLOUDY    69  67  93 CALM      30.04F
APPALACHICOLA  CLEAR     69  69 100 NE3       30.05S
$$





USA.gov is the U.S. government's official web portal to all federal, state and local government web resources and services.